Auburn, AL

2:57 AM CST on January 22, 2017 (GMT -0600)
Auburn-opelika-pitts

Weather History for KAUO - May, 2012

Change the Weather History Date:

Thursday, May 10, 2012

  Actual Average Record
Temperature  
Mean Temperature 67 °F -  
Max Temperature 75 °F - 91 °F (1959)
Min Temperature 59 °F - 39 °F (1984)
Cooling Degree Days 2    
Month to date cooling degree days 65  
Year to date cooling degree days 168  
Growing Degree Days 17 (Base 50)    
Moisture  
Dew Point 49 °F    
Average Humidity 48    
Maximum Humidity 72    
Minimum Humidity 36    
Precipitation  
Precipitation 0.00 in - 2.09 in (2006)
Month to date precipitation 0.45  
Year to date precipitation 9.86  
Sea Level Pressure  
Sea Level Pressure 29.93 in    
Wind  
Wind Speed 9 mph (NNW)    
Max Wind Speed 15 mph    
Max Gust Speed 18 mph    
Visibility 10 miles    
Events      
T = Trace of Precipitation, MM = Missing Value Source: NWS Daily Summary

Daily Weather History Graph

Daily Weather History Graph

Search for Another Location

Airport or City:

Trip Planner

Search our weather history database for the weather conditions in past years. The results will help you decide how hot, cold, wet, or windy it might be!

Date:

Astronomy

May. 10, 2012 Rise Set
Actual Time 5:46 AM CDT 7:30 PM CDT
Civil Twilight 5:19 AM CDT 7:57 PM CDT
Nautical Twilight 4:47 AM CDT 8:29 PM CDT
Astronomical Twilight 4:13 AM CDT 9:03 PM CDT
Moon No Moon Rise 10:10 AM CDT (5/10)
Length of Visible Light 14h 37m
Length of Day
13h 43m
Waning Gibbous, 73% of the Moon is Illuminated
May 10
Waning Gibbous
May 12
Last Quarter
May 20
New
May 28
First Quarter
Jun 4
Full

Hourly Weather History & Observations

Time (CDT) Temp. Dew Point Humidity Pressure Visibility Wind Dir Wind Speed Gust Speed Precip Events Conditions
11:15 AM 71.6 °F 46.4 °F 41% 29.95 in 10.0 mi NNW 11.5 mph 18.4 mph N/A   Clear
11:35 AM 71.6 °F 46.4 °F 41% 29.94 in 10.0 mi NW 9.2 mph 18.4 mph N/A   Clear
11:55 AM 71.6 °F 46.4 °F 41% 29.94 in 10.0 mi NW 11.5 mph 16.1 mph N/A   Clear
12:15 PM 71.6 °F 48.2 °F 43% 29.94 in 10.0 mi WNW 11.5 mph 17.3 mph N/A   Clear
12:35 PM 73.4 °F 46.4 °F 38% 29.93 in 10.0 mi NNW 8.1 mph - N/A   Clear
12:55 PM 73.4 °F 48.2 °F 41% 29.93 in 10.0 mi NNW 9.2 mph 16.1 mph N/A   Clear
1:16 PM 73.4 °F 48.2 °F 41% 29.92 in 10.0 mi NW 9.2 mph 18.4 mph N/A   Clear
1:35 PM 73.4 °F 50.0 °F 44% 29.91 in 10.0 mi North 10.4 mph 18.4 mph N/A   Clear
1:55 PM 73.4 °F 48.2 °F 41% 29.91 in 10.0 mi WNW 15.0 mph - N/A   Clear
2:15 PM 75.2 °F 48.2 °F 38% 29.91 in 10.0 mi NNW 4.6 mph - N/A   Clear
2:35 PM 75.2 °F 46.4 °F 36% 29.91 in 10.0 mi WNW 10.4 mph - N/A   Clear
2:55 PM 75.2 °F 46.4 °F 36% 29.90 in 10.0 mi NNW 8.1 mph - N/A   Clear
3:15 PM 75.2 °F 48.2 °F 38% 29.90 in 10.0 mi NW 11.5 mph 16.1 mph N/A   Clear
3:35 PM 75.2 °F 46.4 °F 36% 29.90 in 10.0 mi NW 11.5 mph 17.3 mph N/A   Clear
3:55 PM 75.2 °F 46.4 °F 36% 29.89 in 10.0 mi WNW 4.6 mph - N/A   Clear
4:15 PM 75.2 °F 48.2 °F 38% 29.89 in 10.0 mi NW 9.2 mph - N/A   Clear
4:35 PM 75.2 °F 46.4 °F 36% 29.90 in 10.0 mi North 8.1 mph - N/A   Clear
4:55 PM 75.2 °F 46.4 °F 36% 29.90 in 10.0 mi NW 5.8 mph - N/A   Clear
5:15 PM 75.2 °F 46.4 °F 36% 29.90 in 10.0 mi NW 6.9 mph - N/A   Clear
5:35 PM 75.2 °F 48.2 °F 38% 29.90 in 10.0 mi NW 9.2 mph - N/A   Clear
5:55 PM 73.4 °F 48.2 °F 41% 29.91 in 10.0 mi NW 5.8 mph - N/A   Clear
6:15 PM 73.4 °F 48.2 °F 41% 29.91 in 10.0 mi West 4.6 mph - N/A   Scattered Clouds
6:35 PM 73.4 °F 48.2 °F 41% 29.91 in 10.0 mi WNW 10.4 mph - N/A   Scattered Clouds
6:55 PM 71.6 °F 48.2 °F 43% 29.92 in 10.0 mi NW 8.1 mph - N/A   Clear
7:15 PM 69.8 °F 48.2 °F 46% 29.92 in 10.0 mi WNW 5.8 mph - N/A   Clear
7:35 PM 69.8 °F 48.2 °F 46% 29.92 in 10.0 mi NW 4.6 mph - N/A   Clear
7:55 PM 68.0 °F 50.0 °F 52% 29.93 in 10.0 mi NNW 4.6 mph - N/A   Clear
8:15 PM 66.2 °F 50.0 °F 56% 29.93 in 10.0 mi North 3.5 mph - N/A   Clear
8:35 PM 66.2 °F 50.0 °F 56% 29.93 in 10.0 mi North 4.6 mph - N/A   Clear
8:55 PM 64.4 °F 50.0 °F 59% 29.94 in 10.0 mi North 4.6 mph - N/A   Clear
9:15 PM 64.4 °F 50.0 °F 59% 29.94 in 10.0 mi North 3.5 mph - N/A   Clear
9:35 PM 62.6 °F 51.8 °F 68% 29.95 in 10.0 mi North 5.8 mph - N/A   Clear
9:55 PM 62.6 °F 50.0 °F 63% 29.95 in 10.0 mi NNW 4.6 mph - N/A   Clear
10:15 PM 62.6 °F 51.8 °F 68% 29.96 in 10.0 mi NNW 3.5 mph - N/A   Clear
10:35 PM 60.8 °F 51.8 °F 72% 29.97 in 10.0 mi NW 4.6 mph - N/A   Clear
10:55 PM 60.8 °F 51.8 °F 72% 29.97 in 10.0 mi NNW 4.6 mph - N/A   Clear
11:15 PM 59.0 °F 50.0 °F 72% 29.97 in 10.0 mi North 4.6 mph - N/A   Clear
11:35 PM 60.8 °F 51.8 °F 72% 29.98 in 10.0 mi North 5.8 mph - N/A   Clear
11:55 PM 59.0 °F 50.0 °F 72% 29.98 in 10.0 mi North 5.8 mph - N/A   Clear